Wetbulb
72.85 72.69 74.37 75.39 73.83 72.20 72.24 73.89 74.12 72.37 70.22 70.53 72.72 74.24 74.17 74.44 74.96 74.97 75.17 74.57 72.53 72.65 72.78 72.83 72.65 72.24 72.01 71.80 70.82 69.72 69.90 68.68 67.20 68.45 67.86 69.17 67.48 68.22 68.45 67.62 67.93 67.48 67.82
73.99 74.18 73.37 71.85 70.19 69.05 68.02 67.19 68.56 70.95 73.40 74.62 74.65 74.57 74.51 74.87 74.87 74.36 74.36 74.78 72.86 72.68 73.15 72.18 72.33 72.26 70.59 68.38 67.62 66.56 67.50 67.86 67.70 66.47 67.86 68.25 67.14 66.54 65.77 66.47 69.08 72.97 72.93
70.06 71.44 71.35 71.92 71.93 72.46 72.75 73.58 74.00 74.49 75.39 75.46 75.44 74.96 74.85 74.69 74.89 74.92 74.74 74.04 73.42 73.51 72.66 72.20 70.47 69.17 67.50 66.96 66.11 65.66 68.29 69.49 69.31 69.17 67.23 66.37 68.20 66.46 66.98 69.85 69.17 69.65 70.69
65.11 65.41 65.89 66.29 66.94 67.69 69.03 70.09 71.31 72.37 72.36 72.75 73.92 74.78 74.98 74.65 74.89 75.12 74.55 74.13 73.50 73.23 72.36 71.81 70.16 68.78 67.21 66.49 65.62 66.06 65.65 66.12 66.25 66.14 64.99 65.55 66.12 68.13 68.38 66.39 65.23 67.05 66.12
63.41 63.27 63.28 64.12 64.77 64.90 64.81 66.32 67.55 68.62 69.75 71.69 71.93 71.56 72.63 74.45 75.31 74.52 74.38 73.92 72.90 70.68 71.09 69.67 68.38 68.49 68.39 66.70 65.05 64.57 63.94 64.42 64.10 63.72 64.88 65.60 65.60 64.99 64.99 65.07 63.97 63.40 62.36
63.32 63.63 63.65 63.39 63.29 63.57 63.82 64.41 64.70 65.10 66.32 67.93 69.23 70.10 70.48 71.56 69.07 69.12 71.48 73.82 70.70 69.89 69.01 68.04 68.59 68.74 66.70 66.68 66.92 67.21 65.31 64.61 65.17 64.97 63.92 63.76 62.25 60.88 62.68 63.00 62.31 61.33 59.78
61.16 61.34 61.18 61.18 61.14 61.74 62.58 62.69 62.75 62.97 64.04 64.72 65.65 67.79 69.21 70.08 67.51 66.90 68.57 72.16 69.60 69.08 68.63 68.41 67.73 67.01 65.73 64.55 65.46 65.73 65.51 66.05 66.32 65.80 64.06 62.81 60.65 60.63 60.46 58.35 57.58 56.53 57.84
59.02 59.46 60.00 60.23 60.59 60.92 61.18 61.22 61.50 62.10 62.46 63.01 63.27 64.89 66.61 68.04 65.73 65.15 66.30 70.63 67.61 68.50 69.01 68.56 66.83 65.36 64.59 63.85 62.76 60.58 60.23 60.90 62.69 64.83 63.11 62.27 60.86 60.63 60.07 59.69 59.15 58.11 58.64
58.10 58.50 58.12 58.18 57.96 57.66 57.92 58.21 59.62 60.67 60.78 60.80 61.66 63.11 64.88 65.78 63.61 62.78 63.73 68.50 67.27 66.64 67.82 68.16 66.72 66.02 62.88 61.76 59.21 56.43 56.88 58.61 59.68 60.74 61.46 60.87 60.73 61.35 61.88 60.98 58.97 57.47 57.04
56.64 57.40 59.22 59.43 57.18 57.09 55.42 55.21 56.53 58.27 60.29 61.06 61.58 63.59 63.32 64.41 62.86 59.88 60.91 68.43 67.03 66.07 65.71 66.53 64.71 64.97 60.76 60.06 58.29 56.12 56.24 56.23 57.07 57.63 58.14 58.74 59.43 59.52 60.30 60.18 59.99 54.85 56.68
57.20 57.46 57.94 57.51 56.83 56.08 54.48 54.76 55.31 56.78 59.08 61.03 60.53 61.79 63.21 64.63 63.90 57.89 58.61 65.35 66.85 64.31 63.56 64.85 64.00 58.93 57.09 57.64 57.08 57.83 57.61 54.66 56.53 54.44 54.20 55.05 56.16 56.70 55.93 56.03 55.37 55.94 53.37
56.26 56.22 55.60 56.61 56.42 55.24 52.66 52.49 53.17 55.92 55.88 60.43 61.28 62.01 60.48 59.31 58.03 57.34 57.53 58.98 62.11 62.06 60.96 61.21 59.57 54.85 54.58 55.62 56.78 55.23 54.61 56.02 54.15 54.23 55.04 53.96 55.34 55.44 54.89 54.63 55.71 55.97 55.82
55.03 53.76 53.40 53.56 55.13 54.04 52.29 50.90 51.49 51.73 53.83 59.03 58.79 57.75 57.75 58.63 57.93 55.94 56.98 59.12 59.52 59.39 58.29 56.24 56.54 54.54 54.50 55.90 56.96 55.60 56.74 57.03 57.14 56.24 55.60 55.36 55.36 55.13 54.15 54.72 55.86 56.26 56.64
52.68 51.76 52.03 51.44 54.51 53.28 52.63 50.97 50.03 48.24 51.72 53.89 53.49 54.25 54.81 52.62 51.39 56.80 57.93 57.10 56.76 56.70 56.04 56.56 58.19 57.02 55.88 56.68 56.53 56.06 56.29 55.91 56.94 55.68 55.11 53.13 53.32 53.57 53.22 53.49 53.54 55.19 53.97
51.29 50.79 49.97 50.18 53.45 53.34 52.95 50.79 50.88 48.98 47.09 50.59 50.47 49.60 49.71 48.46 48.12 47.81 50.71 55.48 56.10 55.42 55.62 56.08 55.40 54.12 54.84 55.94 54.19 53.60 54.63 54.93 53.87 54.44 52.36 52.57 52.03 53.33 51.75 51.80 53.25 53.75 52.25
50.58 49.51 49.11 48.53 48.57 49.17 50.26 52.08 51.88 49.04 46.87 45.36 44.88 48.39 50.49 47.10 47.45 47.14 47.00 46.26 48.04 50.94 54.94 54.42 54.02 53.29 53.93 54.28 53.37 52.59 54.51 54.47 53.74 53.95 52.39 51.79 51.17 52.19 51.09 52.16 51.54 50.53 51.14
50.27 49.27 48.58 48.73 47.90 47.18 47.39 47.00 47.01 49.72 49.19 46.53 45.21 44.10 43.99 44.42 44.55 45.20 46.29 48.10 48.12 52.28 54.42 53.76 55.08 53.64 54.60 54.83 54.12 52.11 53.46 53.46 53.65 54.24 51.97 52.11 52.50 50.92 50.19 51.48 50.49 50.01 49.56
51.75 51.09 49.05 48.49 48.33 47.45 47.43 47.45 47.59 47.34 47.16 48.75 48.96 46.71 43.98 43.95 44.15 45.40 46.22 50.63 53.47 53.67 54.49 54.21 54.81 55.42 54.93 55.18 53.56 52.52 51.63 50.24 51.05 51.51 51.17 51.26 50.62 49.83 49.64 50.46 50.54 49.36 49.40
52.20 50.61 49.69 49.26 48.49 48.67 47.37 47.30 47.16 46.94 47.30 47.23 48.49 49.14 49.27 46.17 46.24 45.93 48.06 53.31 52.65 53.03 54.27 55.06 55.22 55.62 55.90 56.02 54.60 53.63 52.54 52.53 53.17 51.30 50.16 50.70 50.50 49.98 49.44 50.11 49.76 48.28 47.96
53.86 53.44 51.43 49.31 48.90 48.24 48.15 48.27 49.95 46.85 46.59 46.64 47.32 47.72 49.94 50.16 51.89 52.33 53.04 53.71 54.13 54.11 54.85 55.35 55.86 55.72 55.78 56.10 55.33 55.47 53.23 49.97 50.15 49.63 49.30 48.75 50.02 50.02 49.54 49.31 48.56 47.70 47.02
55.96 53.92 54.02 50.26 49.69 49.78 49.02 48.77 49.16 50.56 49.19 48.20 47.46 48.74 47.74 50.13 51.71 51.96 53.35 54.14 54.74 55.18 55.07 55.60 55.74 55.78 56.24 56.88 56.16 55.05 53.08 51.73 51.07 50.61 50.17 50.43 49.62 48.77 48.92 48.80 48.29 48.66 48.28
56.18 54.61 55.52 52.71 51.91 52.41 51.51 49.81 50.05 50.59 51.06 50.86 51.30 52.30 47.55 48.85 50.81 52.45 53.35 53.57 54.18 55.21 55.84 55.53 55.19 55.41 56.79 56.75 56.12 55.07 54.27 53.48 53.56 52.76 52.29 50.82 49.45 49.10 47.78 47.48 47.31 47.30 48.02
57.14 56.98 56.65 54.01 53.44 53.48 54.92 53.10 52.48 52.21 52.20 52.00 52.48 53.47 54.24 53.32 53.81 53.05 53.79 54.39 54.45 54.91 55.71 55.52 55.59 55.51 55.59 55.77 55.85 55.65 53.33 53.00 53.11 52.32 50.74 50.66 50.51 49.84 50.37 49.57 49.17 48.53 47.94
55.40 57.41 56.06 54.85 53.28 52.40 52.98 51.15 53.41 51.69 54.52 54.11 53.35 53.76 53.83 53.85 54.94 55.33 54.77 54.36 54.24 55.41 55.30 55.08 55.08 54.66 54.75 55.08 55.05 54.24 53.82 53.99 53.64 53.25 52.76 52.07 51.96 49.91 50.27 49.32 48.98 48.75 48.37
51.07 54.00 55.94 53.32 52.19 50.18 50.71 51.56 51.85 51.52 51.61 53.00 54.29 55.24 55.82 55.58 55.36 54.70 54.91 54.94 54.55 55.56 55.79 55.33 55.76 55.09 55.31 54.89 53.17 51.19 43.96 38.43 50.99 47.23 51.55 51.30 50.42 49.44 49.23 49.11 48.79 48.29 47.71
52.97 54.59 53.79 52.42 51.02 51.11 52.60 51.22 51.89 53.58 52.32 52.38 52.21 53.72 54.43 53.03 54.21 53.86 53.94 53.89 53.37 53.65 54.07 54.12 54.46 56.04 54.65 54.45 52.51 42.95 35.14 33.57 40.46 38.81 42.97 42.76 42.06 41.65 41.56 41.35 41.50 41.35 41.35
MSLP
1006.57 1007.08 1007.46 1007.73 1008.02 1008.23 1008.45 1008.54 1008.62 1008.55 1008.47 1008.40 1008.36 1008.21 1008.01 1007.80 1007.61 1007.51 1007.43 1007.41 1007.74 1007.82 1007.98 1008.28 1008.53 1008.60 1008.18 1008.57 1009.13 1009.69 1010.23 1010.42 1010.45 1009.83 1009.57 1009.04 1008.85 1008.60 1008.60 1009.08 1009.29 1009.58 1009.52
1007.21 1007.49 1007.86 1008.18 1008.39 1008.46 1008.46 1008.28 1008.23 1008.16 1008.02 1007.70 1007.56 1007.43 1007.27 1007.04 1006.89 1006.83 1006.83 1006.74 1007.04 1007.11 1007.07 1007.47 1007.71 1007.96 1008.62 1008.75 1009.04 1009.64 1009.85 1009.79 1009.70 1009.41 1008.90 1008.57 1008.39 1008.14 1008.19 1008.67 1009.19 1009.07 1009.04
1008.13 1008.21 1008.47 1008.59 1008.66 1008.60 1008.53 1008.28 1007.99 1007.70 1007.59 1007.56 1007.12 1006.84 1006.55 1006.42 1006.36 1006.19 1006.11 1006.13 1006.10 1006.08 1006.12 1006.55 1007.09 1007.49 1008.28 1008.51 1008.69 1009.04 1009.25 1009.08 1009.02 1008.87 1008.49 1008.09 1007.85 1007.98 1008.27 1008.64 1008.87 1008.93 1009.01
1008.69 1008.96 1009.38 1009.15 1009.42 1009.12 1008.69 1008.33 1008.01 1007.74 1007.31 1007.01 1006.75 1006.51 1006.29 1005.83 1005.57 1005.54 1005.53 1005.51 1005.52 1005.43 1005.45 1005.67 1006.31 1006.88 1007.43 1007.84 1008.21 1008.55 1008.57 1008.75 1008.68 1008.68 1008.17 1008.28 1008.03 1007.57 1007.77 1008.35 1008.63 1008.82 1009.15
1009.07 1009.29 1009.76 1009.65 1009.65 1009.29 1008.96 1008.57 1008.18 1007.76 1007.31 1006.96 1006.59 1006.17 1005.81 1005.53 1005.17 1004.92 1004.88 1004.82 1004.91 1004.86 1005.10 1005.27 1005.80 1006.56 1006.88 1007.22 1007.69 1007.96 1008.37 1008.44 1008.64 1008.37 1008.35 1008.30 1008.31 1008.28 1008.37 1008.66 1009.05 1009.02 1009.85
1009.69 1009.90 1009.78 1009.76 1009.68 1009.40 1008.95 1008.48 1008.10 1007.65 1007.22 1006.83 1006.51 1006.14 1005.73 1005.20 1004.73 1004.43 1004.38 1004.37 1004.12 1004.46 1004.92 1005.41 1005.82 1006.33 1006.83 1006.88 1007.11 1007.61 1008.01 1008.06 1008.20 1008.19 1008.35 1008.35 1008.75 1008.89 1008.82 1009.21 1009.49 1009.88 1010.63
1010.07 1010.19 1010.19 1010.22 1010.12 1009.97 1009.47 1009.08 1008.70 1008.15 1007.64 1007.25 1006.55 1005.97 1005.35 1004.89 1004.35 1004.08 1003.79 1003.71 1003.93 1003.89 1004.47 1004.84 1005.75 1006.12 1006.47 1006.77 1006.96 1007.40 1007.68 1007.77 1007.83 1007.88 1008.12 1008.39 1008.85 1009.02 1009.09 1009.54 1009.67 1010.14 1010.27
1010.55 1010.75 1010.77 1010.71 1010.64 1010.29 1009.86 1009.42 1008.80 1008.32 1007.71 1007.01 1006.40 1005.84 1005.14 1004.42 1004.10 1003.72 1003.29 1003.17 1003.46 1003.52 1003.61 1003.90 1004.97 1005.81 1006.26 1006.64 1007.00 1007.33 1007.70 1007.84 1007.88 1007.89 1008.07 1008.31 1008.57 1008.92 1009.02 1009.29 1009.53 1010.16 1010.65
1010.93 1011.06 1011.04 1010.88 1010.70 1010.48 1010.03 1009.38 1008.76 1008.09 1007.39 1006.71 1006.12 1005.37 1004.79 1004.11 1003.56 1003.30 1003.03 1002.79 1002.97 1003.22 1003.31 1003.36 1003.85 1004.86 1005.57 1006.12 1006.86 1007.25 1007.69 1008.01 1007.97 1008.02 1008.21 1008.39 1008.63 1008.73 1009.04 1009.21 1010.01 1010.58 1011.21
1011.28 1011.06 1010.91 1010.80 1010.93 1010.50 1010.17 1009.55 1008.82 1008.02 1007.07 1006.40 1005.62 1004.80 1004.24 1003.64 1002.99 1002.63 1002.80 1002.62 1002.72 1002.89 1003.08 1003.31 1003.37 1004.16 1005.05 1005.87 1006.45 1006.97 1007.72 1008.05 1008.29 1008.50 1008.75 1008.90 1009.13 1009.12 1009.14 1009.59 1009.89 1010.65 1011.28
1011.61 1011.53 1011.33 1010.98 1010.83 1010.64 1010.33 1009.62 1008.80 1008.00 1007.02 1005.90 1005.18 1004.51 1003.87 1003.14 1002.57 1002.51 1002.66 1002.72 1002.70 1002.80 1002.97 1003.11 1003.41 1003.62 1004.75 1005.70 1006.16 1006.65 1007.06 1007.67 1008.39 1008.69 1009.24 1009.51 1009.66 1009.69 1009.76 1009.99 1010.23 1010.46 1011.30
1011.34 1011.32 1011.27 1011.09 1010.85 1010.74 1010.53 1009.81 1008.90 1008.19 1007.12 1005.76 1004.86 1004.48 1004.20 1003.87 1003.23 1002.87 1002.83 1002.91 1002.82 1003.11 1003.51 1003.21 1003.58 1003.76 1004.45 1005.31 1006.08 1006.44 1006.98 1007.53 1008.40 1009.12 1009.67 1010.14 1010.19 1010.41 1010.44 1010.48 1010.39 1010.68 1010.89
1011.75 1011.83 1011.79 1011.63 1011.32 1011.13 1010.74 1010.19 1009.35 1008.55 1007.53 1006.33 1005.58 1005.33 1005.02 1004.64 1004.08 1003.87 1003.37 1003.34 1003.47 1003.31 1003.81 1004.51 1005.10 1004.75 1004.94 1005.11 1005.66 1006.72 1007.20 1007.73 1008.51 1009.28 1009.75 1010.05 1010.30 1010.34 1010.62 1010.97 1011.05 1011.17 1011.25
1011.89 1012.06 1012.03 1011.97 1011.86 1011.64 1011.24 1010.82 1010.23 1009.50 1008.54 1007.57 1007.06 1006.61 1006.18 1005.82 1005.15 1004.66 1004.55 1004.47 1004.23 1004.12 1004.80 1005.04 1005.65 1005.79 1003.64 1005.64 1005.98 1006.72 1007.32 1007.76 1008.13 1008.80 1009.47 1009.96 1010.21 1010.61 1010.90 1011.12 1011.77 1011.83 1012.05
1012.11 1012.43 1012.46 1012.33 1012.22 1012.12 1011.76 1011.44 1010.97 1010.68 1009.94 1009.13 1008.49 1007.84 1007.37 1007.06 1006.97 1006.37 1005.66 1005.45 1005.22 1005.23 1004.87 1005.45 1006.26 1006.67 1006.90 1007.17 1007.98 1007.17 1007.44 1007.64 1008.19 1008.70 1009.29 1009.71 1010.54 1010.92 1011.26 1011.14 1011.36 1012.12 1012.33
1012.49 1012.65 1012.77 1012.64 1012.58 1012.45 1012.01 1011.45 1011.16 1011.05 1010.25 1009.56 1009.26 1008.69 1008.43 1008.00 1007.38 1007.13 1006.73 1006.80 1006.52 1006.36 1006.41 1006.71 1007.10 1007.17 1007.54 1007.57 1008.04 1008.20 1008.08 1008.33 1008.56 1009.00 1009.65 1010.13 1010.41 1010.83 1011.01 1011.27 1011.63 1012.17 1012.53
1012.47 1012.86 1012.94 1012.74 1012.67 1012.45 1012.20 1012.05 1011.76 1011.22 1010.95 1010.50 1009.73 1009.38 1009.16 1008.86 1008.30 1008.11 1007.85 1007.55 1007.70 1007.49 1007.52 1007.77 1007.95 1007.96 1007.94 1007.80 1008.28 1008.96 1008.85 1009.15 1009.36 1009.59 1009.84 1010.32 1010.49 1010.76 1010.99 1011.39 1011.84 1012.09 1012.63
1012.28 1012.64 1012.57 1012.45 1012.43 1012.39 1012.14 1012.07 1011.85 1011.46 1011.21 1011.05 1010.49 1009.96 1009.50 1009.34 1009.01 1008.67 1008.49 1008.29 1008.51 1008.27 1008.26 1008.28 1008.45 1008.52 1008.53 1008.63 1008.80 1008.93 1009.08 1009.43 1009.62 1009.89 1010.00 1010.20 1010.51 1010.71 1011.13 1011.50 1011.88 1012.03 1012.40
1011.69 1012.30 1012.25 1012.10 1012.05 1012.05 1012.15 1012.08 1011.71 1011.44 1011.36 1011.29 1010.91 1010.35 1010.02 1009.68 1009.47 1009.23 1009.06 1009.07 1009.13 1008.90 1008.80 1008.80 1008.96 1008.91 1008.77 1008.84 1009.15 1009.25 1009.18 1009.49 1009.65 1009.76 1010.06 1010.36 1010.70 1010.90 1011.00 1011.34 1011.69 1011.83 1012.07
1010.92 1011.37 1011.77 1011.80 1012.07 1012.08 1012.04 1012.09 1011.79 1011.54 1011.42 1011.22 1010.91 1010.83 1010.68 1010.35 1010.08 1009.98 1009.87 1009.65 1009.58 1009.54 1009.27 1009.32 1009.44 1009.45 1009.78 1009.72 1009.66 1009.40 1009.35 1009.50 1009.54 1009.66 1010.01 1010.30 1010.52 1010.88 1011.17 1011.37 1011.62 1011.87 1011.97
1010.25 1010.50 1011.05 1011.49 1011.58 1011.68 1011.64 1011.73 1011.62 1011.36 1011.37 1011.23 1010.97 1010.65 1010.63 1010.58 1010.26 1010.09 1009.97 1010.08 1009.91 1009.68 1009.70 1009.57 1009.49 1009.68 1009.82 1009.70 1009.55 1009.52 1009.55 1009.49 1009.69 1009.78 1010.02 1010.29 1010.54 1010.83 1010.92 1011.12 1011.35 1011.42 1011.62
1009.53 1009.88 1010.51 1010.84 1010.94 1011.20 1011.00 1011.04 1011.11 1011.03 1010.98 1010.95 1010.55 1010.37 1010.21 1010.42 1009.97 1009.73 1009.62 1009.70 1009.70 1009.42 1009.18 1009.23 1009.32 1009.22 1009.22 1009.20 1009.17 1009.47 1009.50 1009.61 1009.42 1009.64 1009.90 1010.16 1010.42 1010.56 1010.74 1010.99 1011.16 1011.33 1011.58
1009.11 1009.38 1009.57 1009.85 1010.12 1010.26 1010.27 1010.39 1010.51 1010.45 1010.42 1010.38 1010.27 1009.97 1009.93 1009.87 1009.54 1009.43 1009.10 1008.75 1008.87 1008.79 1008.65 1008.68 1008.74 1008.56 1008.58 1008.79 1008.98 1009.02 1009.03 1008.98 1008.99 1009.20 1009.66 1010.10 1010.33 1010.50 1010.72 1011.03 1011.11 1011.20 1011.38
1008.64 1008.71 1008.93 1009.05 1009.30 1009.44 1009.58 1009.59 1009.68 1009.69 1009.76 1009.64 1009.52 1009.45 1009.40 1009.16 1008.93 1008.85 1008.80 1008.59 1008.41 1008.22 1008.10 1008.06 1008.19 1008.15 1008.20 1008.19 1008.14 1008.56 1008.65 1008.80 1009.02 1009.12 1009.38 1009.80 1010.12 1010.36 1010.54 1010.72 1010.76 1010.75 1010.79
1008.18 1008.24 1008.33 1008.44 1008.66 1008.94 1008.91 1008.91 1008.95 1009.03 1009.12 1009.05 1008.99 1008.96 1008.55 1008.25 1008.22 1008.10 1008.07 1007.96 1007.95 1007.75 1007.74 1007.84 1007.87 1007.96 1008.06 1008.03 1008.20 1008.39 1008.65 1008.70 1008.73 1009.16 1009.39 1009.78 1010.06 1010.17 1010.29 1010.42 1010.53 1010.52 1010.58
1007.69 1007.67 1007.81 1007.90 1008.18 1008.44 1008.44 1008.43 1008.43 1008.28 1008.37 1008.28 1008.28 1008.25 1007.95 1007.94 1007.74 1007.90 1007.95 1007.93 1007.77 1007.74 1007.75 1007.59 1007.48 1007.52 1007.61 1007.80 1008.13 1008.52 1008.74 1008.89 1009.09 1009.22 1009.45 1009.74 1009.95 1010.17 1010.38 1010.51 1010.55 1010.53 1010.47
Wind_Speed
7 6 6 6 5 3 3 5 6 7 7 8 10 10 9 8 7 9 11 9 11 10 9 9 11 7 5 3 3 3 3 4 6 6 5 5 5 7 4 5 4 4 5
4 3 1 2 1 4 5 6 6 7 7 8 9 9 8 8 7 8 10 10 11 11 11 9 10 4 6 4 3 4 4 5 5 12 4 4 7 5 3 4 4 5 4
10 8 7 7 6 5 5 5 5 6 6 6 7 8 8 7 7 8 9 10 11 13 11 10 7 9 6 4 4 4 4 4 5 5 5 3 4 2 2 3 3 5 4
8 7 7 6 6 6 6 7 7 7 7 7 7 8 9 8 8 9 8 10 10 11 10 8 8 10 8 7 5 4 2 4 3 4 2 1 1 4 7 5 4 3 4
7 7 6 6 7 6 7 7 7 7 7 8 9 9 9 9 8 8 8 10 10 8 6 6 6 5 8 7 4 3 3 3 3 2 1 1 0 3 3 2 3 5 4
7 7 7 8 9 10 11 11 11 11 10 9 9 11 12 8 12 14 12 10 8 8 8 5 6 10 9 10 8 6 5 3 3 1 1 2 1 1 2 3 3 2 3
8 8 8 8 8 9 9 10 10 11 11 12 12 11 11 11 13 16 14 8 8 9 10 8 7 6 8 6 6 5 2 4 2 2 3 3 3 4 4 3 3 2 3
6 6 6 6 7 8 9 9 9 9 10 10 12 13 12 9 14 16 14 9 6 8 11 13 11 10 8 8 6 5 4 3 1 2 3 4 3 4 4 3 3 5 4
7 6 5 6 6 8 10 12 11 10 10 11 11 13 13 10 13 14 10 7 6 8 8 10 13 12 15 15 9 7 5 3 5 6 7 9 10 8 4 4 3 4 2
5 5 6 8 6 9 13 13 12 12 11 10 12 11 13 12 14 13 8 6 8 5 5 8 15 13 17 16 10 9 7 5 6 6 5 7 6 8 8 3 4 4 3
4 5 5 6 9 8 10 10 10 11 12 11 11 10 10 9 4 3 4 2 4 5 7 6 7 18 17 17 12 10 9 8 6 6 5 4 4 5 4 5 4 5 4
5 5 6 7 5 7 9 9 11 10 10 11 7 6 4 7 8 6 8 8 5 3 3 1 5 14 15 18 13 11 14 10 5 5 5 3 3 3 3 4 6 5 4
5 6 5 6 5 9 8 9 8 9 8 8 6 5 5 5 5 12 9 9 9 6 7 12 14 3 10 8 10 12 12 7 6 4 4 4 3 3 5 4 5 6 6
5 5 5 5 6 8 6 6 7 8 7 6 7 6 6 6 7 6 4 6 12 9 12 9 8 11 12 7 8 7 4 5 6 5 4 3 3 3 2 2 2 2 3
5 4 5 4 4 4 4 6 5 6 5 5 6 6 6 8 7 10 9 5 6 8 11 4 5 4 7 5 5 4 4 5 5 4 4 4 4 3 2 2 3 2 2
4 3 2 2 3 2 3 2 5 6 10 13 13 8 6 9 17 17 20 17 13 10 6 5 4 4 4 5 5 4 5 5 4 5 3 3 4 4 3 2 3 2 3
6 4 2 2 2 2 2 4 4 5 7 13 11 12 12 8 12 13 13 17 15 10 7 5 3 2 3 4 5 1 4 4 4 4 4 4 4 3 4 2 2 3 2
6 7 4 4 3 1 1 2 1 2 3 5 7 8 10 12 13 13 10 8 6 7 6 7 7 7 5 3 1 3 4 3 2 3 4 3 4 4 3 3 3 3 3
7 5 4 4 4 4 1 0 1 2 3 3 4 6 7 9 10 11 10 5 4 4 5 6 5 6 6 7 5 4 2 2 3 4 3 3 3 3 2 2 3 5 5
7 10 7 4 4 3 2 3 2 2 1 1 2 2 4 5 4 3 4 4 4 3 3 3 3 3 1 3 3 2 3 1 2 2 2 3 2 2 3 3 3 3 3
5 7 9 4 4 4 4 4 4 3 2 3 3 3 5 3 4 3 2 1 3 3 3 3 3 3 3 4 6 3 1 2 1 2 2 3 3 3 3 3 3 3 4
5 5 6 7 6 5 6 5 5 4 4 5 5 4 9 3 5 4 3 4 4 5 5 5 4 4 6 6 4 3 4 5 4 4 4 3 3 3 3 2 3 3 3
4 5 5 5 5 7 7 5 6 6 6 5 5 5 3 4 5 4 6 5 4 5 4 4 3 4 4 4 4 6 5 5 5 5 5 5 4 4 3 3 3 3 3
5 5 5 5 4 5 5 6 6 8 7 6 5 5 5 6 6 5 5 5 4 5 4 4 3 4 5 4 4 4 3 4 2 4 5 4 3 3 3 3 4 4 4
5 5 4 5 5 5 5 4 5 5 5 5 4 3 6 5 5 5 4 4 4 3 4 3 4 5 6 7 6 7 4 6 7 5 4 4 1 1 2 3 3 3 4
6 5 5 5 4 5 4 3 5 4 5 5 5 5 6 3 4 2 3 4 5 4 4 4 5 5 8 6 7 9 8 9 7 7 4 3 1 2 2 4 5 3 5
Wind_Direction
173 168 174 200 206 213 225 233 235 243 243 242 245 249 252 255 232 221 228 219 210 220 213 209 221 217 251 184 161 194 218 179 247 277 225 234 237 225 191 160 179 232 256
109 140 68 60 326 300 296 280 275 260 253 248 246 240 238 241 242 225 225 223 218 221 215 212 222 194 173 168 172 215 219 227 237 261 246 234 223 227 192 150 198 212 206
45 52 46 30 6 2 328 324 322 324 310 282 279 271 262 255 253 247 237 230 219 219 217 212 196 163 171 190 188 213 224 246 247 254 266 248 233 182 142 94 82 100 83
49 43 19 8 340 332 330 325 320 308 308 310 300 299 285 267 254 253 239 238 225 224 211 197 171 183 185 173 185 204 249 266 241 228 212 202 304 237 152 142 105 91 85
28 27 360 345 333 333 335 322 315 311 305 299 298 295 293 289 280 265 250 238 223 213 200 167 153 180 155 173 163 182 208 232 247 257 195 160 289 22 99 72 103 87 37
50 39 25 11 354 348 344 341 336 331 324 312 299 292 285 278 272 272 265 247 213 188 168 176 152 151 160 165 177 190 194 195 196 174 174 95 91 76 90 107 108 97 117
42 22 11 355 344 333 327 323 317 313 311 304 301 295 286 281 277 273 258 241 210 182 180 168 166 168 160 157 174 196 203 234 214 187 190 166 150 182 118 109 110 125 109
44 17 360 353 341 329 319 310 307 302 297 294 294 291 284 284 272 266 244 226 199 210 186 171 170 168 171 149 140 124 111 87 51 224 189 161 140 141 132 146 124 105 68
36 24 0 343 339 335 331 324 311 299 296 292 287 284 281 284 279 263 251 211 197 212 212 179 161 166 160 149 140 136 123 90 54 82 106 105 109 100 106 102 81 99 81
22 9 354 354 339 338 334 325 313 305 292 290 289 280 277 277 273 253 226 228 213 208 211 192 164 158 157 153 147 145 142 165 134 103 86 72 73 78 78 101 141 111 112
12 8 351 16 4 346 331 319 312 306 300 292 285 284 287 282 280 230 199 265 235 207 195 181 178 156 161 169 157 162 168 147 142 116 105 92 78 83 75 76 70 119 121
30 20 8 1 360 355 339 325 326 319 309 301 281 285 349 345 12 71 76 57 67 130 257 213 171 146 153 158 160 157 143 126 119 114 109 101 108 110 96 89 90 80 74
37 21 16 350 2 9 349 341 337 333 330 356 8 7 3 2 21 19 52 67 27 90 82 62 22 137 120 126 151 156 136 131 128 117 132 145 172 152 108 75 61 76 78
54 34 19 10 7 20 2 354 356 346 342 11 10 7 11 10 3 359 38 60 78 76 80 90 90 69 24 61 99 117 127 148 149 150 162 128 101 96 90 114 104 97 73
69 39 27 20 13 352 32 22 13 19 19 19 30 33 32 30 8 33 35 57 80 86 100 61 88 64 90 70 4 33 112 109 121 128 123 119 121 134 161 175 111 114 107
104 74 55 48 19 5 340 353 21 22 49 60 35 37 60 55 59 47 52 36 42 49 60 69 65 81 109 94 93 49 39 55 68 90 101 124 135 148 140 101 102 134 142
146 158 145 100 74 49 2 10 4 332 10 24 47 50 39 42 52 56 47 66 36 43 54 52 59 105 100 89 100 284 137 138 165 132 142 160 152 142 131 150 158 136 120
171 184 166 157 143 147 102 73 14 18 18 352 358 28 36 34 33 45 39 52 42 44 50 57 48 46 41 58 145 154 128 131 115 116 119 135 152 138 138 165 192 164 178
166 192 186 169 180 162 157 215 81 23 41 30 341 344 2 27 28 27 32 57 28 25 26 46 44 49 37 32 18 21 82 140 158 130 115 122 149 153 126 148 206 197 159
180 185 193 172 174 201 213 250 221 256 348 54 322 312 336 347 20 28 33 19 18 8 359 38 27 26 12 297 295 87 265 146 124 122 143 144 143 153 165 153 175 174 202
175 173 186 175 191 207 204 218 246 244 239 253 261 260 243 299 314 323 315 263 297 297 271 278 302 251 238 234 239 233 288 274 224 170 163 174 169 175 187 178 177 185 173
177 184 184 199 198 214 223 212 230 244 241 248 264 253 261 259 279 273 246 221 226 240 233 230 221 207 201 215 210 218 245 235 228 190 197 201 207 205 182 198 211 201 184
176 222 210 203 194 206 224 221 227 235 244 235 241 263 250 250 257 256 272 275 232 240 223 217 235 251 200 191 203 214 197 186 180 156 161 175 182 183 181 195 201 214 216
214 214 208 222 220 209 216 219 214 229 238 243 240 242 242 241 249 247 245 258 249 252 262 271 278 221 188 197 157 184 170 137 133 157 157 158 174 174 191 215 225 230 238
217 222 206 193 196 215 224 220 225 219 235 242 257 244 262 245 234 244 243 263 276 232 241 221 194 216 206 181 157 149 134 130 122 126 109 117 147 296 289 280 282 279 264
216 211 212 186 188 222 248 213 240 237 221 230 211 224 251 232 249 251 283 262 229 236 252 222 219 201 176 177 167 147 142 136 130 131 121 111 117 283 269 262 272 260 267